Location: Chena
(64.8152°N, 147.9227°W)
Time: 22:00:37
(UTC+00:00)

Vanguard 2 - Pass Details

Date: 07 March 2021
Orbit: 552 x 2938 km, 32.9° (Epoch: 11 April)

Event Time Altitude Azimuth Distance (km) Brightness Sun altitude
Rises 17:24:48 0° 250° (WSW) 6,376 11.7 4.0°
Reaches altitude 10° 17:34:08 10° 223° (SW) 5,698 11.8 4.9°
Maximum altitude 17:38:04 11° 209° (SSW) 5,655 11.9 5.3°
Drops below altitude 10° 17:42:03 10° 196° (SSW) 5,764 12.1 5.7°
Sets 17:51:48 0° 169° (SSE) 6,582 12.9 6.7°
